User: anonymous   Login
Location: Unspecified
(0.0000°N, 0.0000°E)
Time: 01:01:37
(UTC+00:00)
Language:

IRIDE-MS2-HEO-8 - Orbit

View from above orbital plane
View from above orbital plane
View from above satellite
View from above satellite

Ground track
Ground track

The orbit is defined by the following mean orbital elements,

1 64587U          26145.60393865 +.00000000 +00000-0 +17652-3 0 00005
2 64587  97.7710 260.4072 0002973  79.8839 280.2715 14.91852617    08
Epoch (UTC): 25 May 2026 14:29:40
Eccentricity: 0.0002973
inclination: 97.7710°
perigee height: 590 km
apogee height: 594 km
right ascension of ascending node: 260.4072°
argument of perigee: 79.8839°
revolutions per day: 14.91852617
mean anomaly at epoch: 280.2715°

The dashed part of the orbit path shows where the satellite is in the earth's shadow,  

DLR